This is the latest recevied weather packets stored in our database for station/object M0JUI-1. If no packets are shown the sender has not sent any weather packets the latest 10 day(s).
| Time | Temp. | Humidity | Pressure | Rain* | Wind** | Luminosity | Snow |
|---|---|---|---|---|---|---|---|
| 1778096127 | 8.33° C | 4% | 1015 hPa | 0 mm | - | 5 W/m² | - |
| 1778095827 | 8.33° C | 4% | 1015.1 hPa | 0 mm | - | 7 W/m² | - |
| 1778095527 | 8.89° C | 3% | 1015 hPa | 0 mm | - | 10 W/m² | - |
| 1778095227 | 8.89° C | 3% | 1014.8 hPa | 0 mm | - | 12 W/m² | - |
| 1778094915 | 8.89° C | 2% | 1014.9 hPa | 0 mm | - | 16 W/m² | - |
| 1778094616 | 9.44° C | 1% | 1015.1 hPa | 0 mm | - | 20 W/m² | - |
| 1778094315 | 9.44° C | 1% | 1015 hPa | 0 mm | - | 23 W/m² | - |
| 1778094016 | 9.44° C | 1% | 1014.9 hPa | 0 mm | - | 26 W/m² | - |
| 1778093715 | 9.44° C | 1% | 1015 hPa | 0 mm | - | 30 W/m² | - |
| 1778093415 | 9.44° C | 1% | 1014.8 hPa | 0 mm | - | 33 W/m² | - |
| 1778093115 | 9.44° C | 1% | 1014.9 hPa | 0 mm | - | 34 W/m² | - |
| 1778092811 | 9.44° C | 99% | 1014.7 hPa | 0 mm | - | 32 W/m² | - |
| 1778092503 | 10° C | 99% | 1014.8 hPa | 0 mm | - | 42 W/m² | - |
| 1778092207 | 10° C | 99% | 1014.9 hPa | 0 mm | - | 42 W/m² | - |
| 1778091891 | 10.56° C | 99% | 1014.8 hPa | 0 mm | - | 45 W/m² | - |
| 1778091591 | 10.56° C | 99% | 1015 hPa | 0 mm | - | 47 W/m² | - |
| 1778091291 | 10.56° C | 99% | 1014.8 hPa | 0 mm | - | 48 W/m² | - |
| 1778090980 | 10.56° C | 99% | 1014.7 hPa | 0 mm | - | 54 W/m² | - |
| 1778090680 | 10° C | 99% | 1014.9 hPa | 0 mm | - | 72 W/m² | - |
| 1778090379 | 10° C | 99% | 1014.8 hPa | 0 mm | - | 74 W/m² | - |
| 1778090068 | 10° C | 99% | 1014.6 hPa | 0 mm | - | 68 W/m² | - |
| 1778089768 | 10.56° C | 99% | 1014.8 hPa | 0 mm | - | 73 W/m² | - |
| 1778089467 | 10.56° C | 99% | 1014.8 hPa | 0 mm | - | 60 W/m² | - |
| 1778089167 | 10.56° C | 99% | 1014.6 hPa | 0 mm | - | 58 W/m² | - |
| 1778088868 | 10.56° C | 97% | 1014.8 hPa | 0 mm | - | 78 W/m² | - |
* Rain latest hour (hover to see other rain measurements)
** Current wind speed in m/s (hover to see current wind gust speed)